Starlink 11420

operational
NORAD ID: 62591 Int'l Des: 2025-008 Owner: SPXS Country: US Constellation: starlink
LEOCIRCULAR

About Starlink 11420

Description loading...

Live Position

Loading 3D Globe...

Upcoming Passes

Altitude History

Altitude vs Time

uPlot chart will show altitude changes over time

Two-Line Element Set

1 62591U 25008E 25306.33839028 .00422430 00000-0 31005-2 0 9996
2 62591 42.9998 173.9354 0002201 310.6913 49.3763 15.71075307 47263
Epoch: Nov 2, 2025 • Age: 18 hours

Current Status

Altitude 364.8 km
Velocity 7.69 km/s
Sub-Earth Point -40.11°S, 30.95°E
Launch Date Jan 13, 2025
Age 0.8 years
Type internet

Technical Details

Classification Payload
Mass 960.00 kg
Dry Mass 910.00 kg
Total Mass 960.00 kg
Length 0.30 m
Diameter 4.10 m
Span 29.00 m
Shape Box + pan
Manufacturer SPXS
Bus Type Starlink V2MD
Phase Status In Orbit
Owner/State SPXS/US

Large Constellations

Loading constellations...